Zurück zum Katalog

HULIANWANG DIGUI-159

AktivKommunikationLEO
NORAD 68133·PAYLOAD·🇨🇳 China

Gestartet Mar 12, 2026 von Wenchang Space Launch Site

Loading…

Nächste Überflüge (nächste 24 Stunden)

TLE

AktuellSource: Space-Track

Epoche: Sep 14, 2026, 14:01 UTC

1 68133U 26047E   26257.58419218 -.00000099  00000-0  53308-4 0  9992
2 68133  50.0010  95.4438 0001231  62.1908 297.9089 13.29324293 24968

Verfolge HULIANWANG DIGUI-159 in Echtzeit mit AllMySat

Download on the App Store